GPS BIIR-11 (PRN 19)

Last updated on Jan. 28, 2020, 4:41 a.m. UTC

1 28190U 04009A   20027.22740250 -.00000087  00000-0  00000-0 0  9992
2 28190  56.2835   8.3390 0089170  88.9022  48.0280  2.00564686116195
UTC
Height (km)
Latitude
Longitude
Inclination
Orbital Period
UTC large
Height (km)
Speed (km/s)
/
Latitude / Longitude
Inclination (degrees)
Orbital Period (minutes)
Azimuth
Elevation
Range (km)
Doppler Factor
iOS Compass Heading
iOS Angle

Next 30 passes for location: Hong Kong

Rise time Rise Azimuth (degrees) Set time Set Azimuth (degrees) Duration Max altitude (degrees)

No matching passes for this satellites